AAY355 KCAK-KBNA

Flight info

Callsign AAY355
Flight time 1h 9m
Altitude 36000
Route AEROS POMCT HYK CUTRR PASLY5
Aircraft A319/M-SDE3FGHIRWY/LB1

Departure

Time 2026-04-20 11:34
Airport Akron Canton Regional Airport (KCAK)

Arrival

Time 2026-04-20 12:43
Airport Nashville International Airport (KBNA)
Time Latitude Longitude Altitude Speed Heading
2026-04-20 11:11 40.91359 -81.43727 1223 ft 0 kts 90°
2026-04-20 11:25 40.91359 -81.43751 1222 ft 3 kts 90°
2026-04-20 11:25 40.91359 -81.43775 1222 ft 3 kts 130°
2026-04-20 11:25 40.91364 -81.43782 1222 ft 0 kts 147°
2026-04-20 11:29 40.91359 -81.43783 1222 ft 2 kts 176°
2026-04-20 11:29 40.91351 -81.43802 1222 ft 4 kts 259°
2026-04-20 11:29 40.91343 -81.43843 1222 ft 5 kts 241°
2026-04-20 11:29 40.91308 -81.43872 1222 ft 7 kts 203°
2026-04-20 11:30 40.91258 -81.43900 1221 ft 8 kts 204°
2026-04-20 11:30 40.91199 -81.43933 1221 ft 10 kts 202°
2026-04-20 11:30 40.91131 -81.43965 1221 ft 11 kts 194°
2026-04-20 11:30 40.91048 -81.43973 1220 ft 13 kts 181°
2026-04-20 11:31 40.90954 -81.43977 1219 ft 14 kts 182°
2026-04-20 11:31 40.90849 -81.43985 1219 ft 16 kts 184°
2026-04-20 11:31 40.90756 -81.43994 1218 ft 11 kts 197°
2026-04-20 11:31 40.90731 -81.44020 1218 ft 0 kts 235°
2026-04-20 11:32 40.90731 -81.44021 1218 ft 1 kts 235°
2026-04-20 11:32 40.90727 -81.44038 1218 ft 4 kts 258°
2026-04-20 11:32 40.90726 -81.44085 1217 ft 6 kts 274°
2026-04-20 11:33 40.90750 -81.44130 1218 ft 6 kts 339°
2026-04-20 11:33 40.90769 -81.44132 1218 ft 0 kts
2026-04-20 11:33 40.90906 -81.44125 1219 ft 57 kts
2026-04-20 11:33 40.91555 -81.44089 1224 ft 127 kts
2026-04-20 11:34 40.92558 -81.44035 1603 ft 144 kts
2026-04-20 11:34 40.93529 -81.43978 2429 ft 139 kts
2026-04-20 11:34 40.94472 -81.44228 2969 ft 148 kts 321°
2026-04-20 11:34 40.94973 -81.45524 3341 ft 175 kts 279°
2026-04-20 11:35 40.94890 -81.47228 3785 ft 199 kts 264°
2026-04-20 11:35 40.94522 -81.49117 4197 ft 229 kts 246°
2026-04-20 11:35 40.93408 -81.50749 4720 ft 259 kts 217°
2026-04-20 11:35 40.91820 -81.51988 5661 ft 268 kts 212°
2026-04-20 11:36 40.90162 -81.53153 6722 ft 272 kts 211°
2026-04-20 11:36 40.88395 -81.54117 7722 ft 277 kts 205°
2026-04-20 11:36 40.86572 -81.54998 8717 ft 281 kts 205°
2026-04-20 11:36 40.84717 -81.55869 9718 ft 285 kts 205°
2026-04-20 11:37 40.82811 -81.56760 10443 ft 301 kts 205°
2026-04-20 11:37 40.78638 -81.58715 11654 ft 327 kts 205°
2026-04-20 11:37 40.76472 -81.59723 12516 ft 332 kts 205°
2026-04-20 11:38 40.74279 -81.60742 13387 ft 336 kts 206°
2026-04-20 11:38 40.72083 -81.61765 14213 ft 341 kts 206°
2026-04-20 11:38 40.69833 -81.62817 14956 ft 345 kts 206°
2026-04-20 11:38 40.67559 -81.63886 15703 ft 349 kts 207°
2026-04-20 11:39 40.65255 -81.64970 16442 ft 353 kts 207°
2026-04-20 11:39 40.62930 -81.66063 17173 ft 357 kts 207°
2026-04-20 11:39 40.60571 -81.67171 17830 ft 362 kts 208°
2026-04-20 11:39 40.58183 -81.68292 18542 ft 367 kts 209°
2026-04-20 11:40 40.55768 -81.69422 19153 ft 371 kts 210°
2026-04-20 11:40 40.53323 -81.70563 19775 ft 374 kts 210°
2026-04-20 11:40 40.51691 -81.71324 20189 ft 377 kts 210°
2026-04-20 11:40 40.49307 -81.72680 20803 ft 370 kts 220°
2026-04-20 11:41 40.47170 -81.74479 21427 ft 361 kts 229°
2026-04-20 11:41 40.44496 -81.77125 22282 ft 365 kts 230°
2026-04-20 11:41 40.43121 -81.78480 22718 ft 366 kts 230°
2026-04-20 11:41 40.41099 -81.80469 23356 ft 369 kts 230°
2026-04-20 11:42 40.39036 -81.82497 23975 ft 372 kts 230°
2026-04-20 11:42 40.36956 -81.84539 24468 ft 375 kts 230°
2026-04-20 11:42 40.34858 -81.86598 24948 ft 378 kts 230°
2026-04-20 11:42 40.32745 -81.88676 25415 ft 381 kts 230°
2026-04-20 11:43 40.30613 -81.90770 25862 ft 384 kts 229°
2026-04-20 11:43 40.28464 -81.92874 26310 ft 387 kts 229°
2026-04-20 11:43 40.26295 -81.94991 26764 ft 390 kts 229°
2026-04-20 11:43 40.24108 -81.97124 27193 ft 394 kts 229°
2026-04-20 11:44 40.21902 -81.99275 27618 ft 397 kts 228°
2026-04-20 11:44 40.19680 -82.01439 28009 ft 400 kts 229°
2026-04-20 11:44 40.17444 -82.03614 28493 ft 401 kts 228°
2026-04-20 11:44 40.15220 -82.05773 28939 ft 404 kts 228°
2026-04-20 11:45 40.12959 -82.07966 29358 ft 406 kts 228°
2026-04-20 11:45 40.10680 -82.10175 29764 ft 409 kts 228°
2026-04-20 11:45 40.08386 -82.12403 30166 ft 412 kts 227°
2026-04-20 11:45 40.06079 -82.14642 30523 ft 415 kts 227°
2026-04-20 11:46 40.03745 -82.16904 30832 ft 418 kts 227°
2026-04-20 11:46 40.01430 -82.19202 31125 ft 416 kts 230°
2026-04-20 11:46 39.99266 -82.21701 31419 ft 416 kts 231°
2026-04-20 11:46 39.97102 -82.24213 31715 ft 417 kts 231°
2026-04-20 11:47 39.94926 -82.26734 32030 ft 419 kts 231°
2026-04-20 11:47 39.92736 -82.29265 32310 ft 421 kts 231°
2026-04-20 11:47 39.90565 -82.31767 32615 ft 423 kts 230°
2026-04-20 11:47 39.88364 -82.34296 33013 ft 422 kts 230°
2026-04-20 11:48 39.86164 -82.36824 33413 ft 421 kts 230°
2026-04-20 11:48 39.83970 -82.39345 33801 ft 421 kts 229°
2026-04-20 11:48 39.81771 -82.41876 34132 ft 421 kts 229°
2026-04-20 11:48 39.79575 -82.44409 34446 ft 422 kts 229°
2026-04-20 11:49 39.77377 -82.46936 34745 ft 421 kts 229°
2026-04-20 11:49 39.75184 -82.49449 35139 ft 418 kts 229°
2026-04-20 11:49 39.73000 -82.51947 35467 ft 417 kts 229°
2026-04-20 11:49 39.70845 -82.54408 35732 ft 417 kts 229°
2026-04-20 11:50 39.68664 -82.56896 35990 ft 418 kts 229°
2026-04-20 11:50 39.66481 -82.59391 36221 ft 418 kts 230°
2026-04-20 11:50 39.62138 -82.64353 36341 ft 411 kts 230°
2026-04-20 11:51 39.57859 -82.69237 36338 ft 408 kts 230°
2026-04-20 11:51 39.53607 -82.74084 36340 ft 406 kts 230°
2026-04-20 11:52 39.49364 -82.78909 36332 ft 406 kts 230°
2026-04-20 11:52 39.45145 -82.83695 36347 ft 406 kts 230°
2026-04-20 11:53 39.40890 -82.88516 36349 ft 406 kts 230°
2026-04-20 11:53 39.36641 -82.93326 36368 ft 406 kts 230°
2026-04-20 11:54 39.32389 -82.98127 36356 ft 405 kts 230°
2026-04-20 11:54 39.28132 -83.02914 36362 ft 405 kts 230°
2026-04-20 11:55 39.23886 -83.07683 36362 ft 404 kts 230°
2026-04-20 11:55 39.19646 -83.12452 36360 ft 404 kts 230°
2026-04-20 11:56 39.15402 -83.17210 36347 ft 404 kts 230°
2026-04-20 11:56 39.11154 -83.21960 36342 ft 405 kts 230°
2026-04-20 11:57 39.06903 -83.26718 36350 ft 405 kts 230°
2026-04-20 11:57 39.02669 -83.31430 36355 ft 405 kts 230°
2026-04-20 11:58 38.98404 -83.36173 36360 ft 405 kts 230°
2026-04-20 11:58 38.94157 -83.40905 36362 ft 404 kts 230°
2026-04-20 11:59 38.89897 -83.45631 36345 ft 404 kts 230°
2026-04-20 11:59 38.85643 -83.50351 36351 ft 404 kts 230°
2026-04-20 12:00 38.81413 -83.55029 36331 ft 404 kts 230°
2026-04-20 12:00 38.77144 -83.59742 36342 ft 405 kts 230°
2026-04-20 12:01 38.72868 -83.64452 36341 ft 406 kts 230°
2026-04-20 12:01 38.68581 -83.69172 36325 ft 406 kts 230°
2026-04-20 12:02 38.64300 -83.73879 36352 ft 406 kts 230°
2026-04-20 12:02 38.60006 -83.78596 36365 ft 406 kts 230°
2026-04-20 12:03 38.55705 -83.83314 36372 ft 407 kts 230°
2026-04-20 12:03 38.51427 -83.87989 36373 ft 406 kts 230°
2026-04-20 12:04 38.47132 -83.92674 36334 ft 406 kts 230°
2026-04-20 12:04 38.42826 -83.97367 36339 ft 407 kts 230°
2026-04-20 12:05 38.38515 -84.02057 36341 ft 407 kts 230°
2026-04-20 12:05 38.34203 -84.06745 36342 ft 407 kts 230°
2026-04-20 12:06 38.29890 -84.11419 36345 ft 407 kts 230°
2026-04-20 12:06 38.25603 -84.16067 36349 ft 407 kts 230°
2026-04-20 12:07 38.21285 -84.20738 36348 ft 407 kts 230°
2026-04-20 12:07 38.16963 -84.25401 36347 ft 407 kts 230°
2026-04-20 12:08 38.12636 -84.30068 36327 ft 407 kts 230°
2026-04-20 12:08 38.08306 -84.34726 36325 ft 408 kts 230°
2026-04-20 12:09 38.04000 -84.39358 36307 ft 408 kts 230°
2026-04-20 12:09 37.99659 -84.44011 36323 ft 408 kts 230°
2026-04-20 12:10 37.94763 -84.47921 36302 ft 430 kts 211°
2026-04-20 12:10 37.88976 -84.50266 36308 ft 437 kts 207°
2026-04-20 12:11 37.83198 -84.52519 36319 ft 437 kts 207°
2026-04-20 12:11 37.77384 -84.54797 36324 ft 437 kts 207°
2026-04-20 12:12 37.71575 -84.57070 36337 ft 437 kts 207°
2026-04-20 12:12 37.65759 -84.59327 36348 ft 437 kts 207°
2026-04-20 12:13 37.59950 -84.61577 36354 ft 437 kts 207°
2026-04-20 12:13 37.54145 -84.63836 36338 ft 436 kts 207°
2026-04-20 12:14 37.48388 -84.66072 36342 ft 436 kts 207°
2026-04-20 12:14 37.42593 -84.68319 36328 ft 436 kts 207°
2026-04-20 12:15 37.36791 -84.70562 36327 ft 436 kts 207°
2026-04-20 12:15 37.33860 -84.71700 36099 ft 448 kts 207°
2026-04-20 12:15 37.30850 -84.72876 35854 ft 453 kts 207°
2026-04-20 12:16 37.27900 -84.74008 35608 ft 443 kts 207°
2026-04-20 12:16 37.24956 -84.75127 35359 ft 438 kts 207°
2026-04-20 12:16 37.22047 -84.76235 35123 ft 436 kts 208°
2026-04-20 12:16 37.19150 -84.77345 34891 ft 435 kts 208°
2026-04-20 12:17 37.16255 -84.78460 34661 ft 435 kts 208°
2026-04-20 12:17 37.13346 -84.79581 34314 ft 436 kts 208°
2026-04-20 12:17 37.10452 -84.80691 33825 ft 434 kts 208°
2026-04-20 12:17 37.07600 -84.81855 33386 ft 425 kts 213°
2026-04-20 12:18 37.04995 -84.83474 32959 ft 411 kts 222°
2026-04-20 12:18 37.02722 -84.85549 32548 ft 400 kts 231°
2026-04-20 12:18 37.00820 -84.87954 32043 ft 390 kts 239°
2026-04-20 12:18 36.99239 -84.90713 31533 ft 382 kts 247°
2026-04-20 12:19 36.97889 -84.93530 31044 ft 384 kts 247°
2026-04-20 12:19 36.96502 -84.96404 30555 ft 385 kts 246°
2026-04-20 12:19 36.95108 -84.99266 29992 ft 384 kts 246°
2026-04-20 12:19 36.93718 -85.02101 29372 ft 381 kts 246°
2026-04-20 12:20 36.92336 -85.04917 28733 ft 378 kts 246°
2026-04-20 12:20 36.90970 -85.07709 28171 ft 376 kts 246°
2026-04-20 12:20 36.89611 -85.10490 27629 ft 374 kts 246°
2026-04-20 12:20 36.88280 -85.13216 27080 ft 372 kts 246°
2026-04-20 12:21 36.86935 -85.15969 26559 ft 370 kts 246°
2026-04-20 12:21 36.85597 -85.18702 26050 ft 368 kts 245°
2026-04-20 12:21 36.84265 -85.21423 25545 ft 366 kts 245°
2026-04-20 12:21 36.82938 -85.24131 25053 ft 365 kts 245°
2026-04-20 12:22 36.81618 -85.26824 24562 ft 363 kts 245°
2026-04-20 12:22 36.80303 -85.29503 24084 ft 361 kts 245°
2026-04-20 12:22 36.78993 -85.32167 23593 ft 360 kts 245°
2026-04-20 12:22 36.77682 -85.34829 23105 ft 358 kts 245°
2026-04-20 12:23 36.76386 -85.37461 22641 ft 356 kts 245°
2026-04-20 12:23 36.75098 -85.40085 22207 ft 354 kts 245°
2026-04-20 12:23 36.73827 -85.42699 21763 ft 351 kts 245°
2026-04-20 12:23 36.72588 -85.45318 21347 ft 350 kts 246°
2026-04-20 12:24 36.71367 -85.47930 20935 ft 348 kts 246°
2026-04-20 12:24 36.70158 -85.50531 20529 ft 346 kts 246°
2026-04-20 12:24 36.68952 -85.53121 20121 ft 344 kts 246°
2026-04-20 12:24 36.67748 -85.55693 19732 ft 343 kts 245°
2026-04-20 12:25 36.66562 -85.58219 19323 ft 341 kts 245°
2026-04-20 12:25 36.65364 -85.60757 18943 ft 338 kts 245°
2026-04-20 12:25 36.64177 -85.63270 18537 ft 336 kts 245°
2026-04-20 12:25 36.62995 -85.65768 18038 ft 334 kts 245°
2026-04-20 12:26 36.61819 -85.68257 17548 ft 333 kts 246°
2026-04-20 12:26 36.60648 -85.70736 17081 ft 332 kts 246°
2026-04-20 12:26 36.59478 -85.73207 16610 ft 331 kts 246°
2026-04-20 12:26 36.58310 -85.75671 16147 ft 330 kts 247°
2026-04-20 12:27 36.57143 -85.78128 15696 ft 330 kts 247°
2026-04-20 12:27 36.55979 -85.80584 15246 ft 329 kts 248°
2026-04-20 12:27 36.54817 -85.83033 14804 ft 328 kts 248°
2026-04-20 12:27 36.53657 -85.85473 14368 ft 328 kts 248°
2026-04-20 12:28 36.52498 -85.87913 13909 ft 327 kts 248°
2026-04-20 12:28 36.51356 -85.90314 13432 ft 326 kts 248°
2026-04-20 12:28 36.50202 -85.92731 12972 ft 323 kts 248°
2026-04-20 12:28 36.49058 -85.95121 12526 ft 321 kts 248°
2026-04-20 12:29 36.47923 -85.97492 12108 ft 317 kts 247°
2026-04-20 12:29 36.46799 -85.99842 11676 ft 315 kts 247°
2026-04-20 12:29 36.45686 -86.02171 11219 ft 312 kts 247°
2026-04-20 12:29 36.44585 -86.04484 10768 ft 309 kts 247°
2026-04-20 12:30 36.43495 -86.06767 10440 ft 303 kts 247°
2026-04-20 12:30 36.42443 -86.08948 10294 ft 292 kts 247°
2026-04-20 12:30 36.41417 -86.11073 10076 ft 283 kts 247°
2026-04-20 12:30 36.40470 -86.13182 9710 ft 275 kts 254°
2026-04-20 12:31 36.39958 -86.15408 9319 ft 263 kts 268°
2026-04-20 12:31 36.39919 -86.17638 8924 ft 255 kts 281°
2026-04-20 12:31 36.40303 -86.19764 8481 ft 252 kts 291°
2026-04-20 12:31 36.40855 -86.21824 8046 ft 251 kts 290°
2026-04-20 12:32 36.41396 -86.23883 7615 ft 250 kts 289°
2026-04-20 12:32 36.41932 -86.25937 7230 ft 249 kts 289°
2026-04-20 12:32 36.42466 -86.27985 6820 ft 249 kts 288°
2026-04-20 12:32 36.42994 -86.30004 6391 ft 249 kts 288°
2026-04-20 12:33 36.43525 -86.32037 6070 ft 243 kts 288°
2026-04-20 12:33 36.44029 -86.33970 6043 ft 226 kts 288°
2026-04-20 12:33 36.44495 -86.35760 6044 ft 210 kts 288°
2026-04-20 12:33 36.44935 -86.37450 6053 ft 202 kts 287°
2026-04-20 12:34 36.45263 -86.39141 5990 ft 201 kts 279°
2026-04-20 12:34 36.45427 -86.40860 5899 ft 201 kts 274°
2026-04-20 12:34 36.45444 -86.42572 5823 ft 201 kts 268°
2026-04-20 12:34 36.45306 -86.44322 5746 ft 201 kts 262°
2026-04-20 12:35 36.45014 -86.46005 5673 ft 202 kts 257°
2026-04-20 12:35 36.44565 -86.47670 5594 ft 205 kts 252°
2026-04-20 12:35 36.43953 -86.49284 5527 ft 208 kts 245°
2026-04-20 12:35 36.43182 -86.50810 5445 ft 209 kts 239°
2026-04-20 12:36 36.42262 -86.52220 5373 ft 212 kts 233°
2026-04-20 12:36 36.41198 -86.53502 5295 ft 214 kts 226°
2026-04-20 12:36 36.40013 -86.54627 5215 ft 212 kts 220°
2026-04-20 12:36 36.38768 -86.55537 5139 ft 203 kts 213°
2026-04-20 12:37 36.37506 -86.56227 5061 ft 194 kts 207°
2026-04-20 12:37 36.36245 -86.56746 4945 ft 191 kts 205°
2026-04-20 12:37 36.35004 -86.57244 4739 ft 189 kts 205°
2026-04-20 12:37 36.33757 -86.57742 4544 ft 188 kts 205°
2026-04-20 12:38 36.32513 -86.58240 4355 ft 187 kts 206°
2026-04-20 12:38 36.31276 -86.58737 4171 ft 186 kts 205°
2026-04-20 12:38 36.30046 -86.59231 3988 ft 186 kts 205°
2026-04-20 12:38 36.28813 -86.59725 3774 ft 184 kts 206°
2026-04-20 12:39 36.26787 -86.60537 3288 ft 182 kts 205°
2026-04-20 12:39 36.25592 -86.61016 3047 ft 179 kts 206°
2026-04-20 12:39 36.24063 -86.61626 2737 ft 169 kts 205°
2026-04-20 12:40 36.22989 -86.62052 2525 ft 158 kts 205°
2026-04-20 12:40 36.22290 -86.62330 2383 ft 150 kts 205°
2026-04-20 12:40 36.21351 -86.62703 2198 ft 135 kts 205°
2026-04-20 12:40 36.20476 -86.63052 2031 ft 127 kts 206°
2026-04-20 12:41 36.19658 -86.63383 1848 ft 124 kts 205°
2026-04-20 12:41 36.18842 -86.63713 1701 ft 124 kts 204°
2026-04-20 12:41 36.18020 -86.64045 1518 ft 125 kts 202°
2026-04-20 12:41 36.17183 -86.64382 1363 ft 127 kts 200°
2026-04-20 12:42 36.16338 -86.64723 1184 ft 128 kts 198°
2026-04-20 12:42 36.15486 -86.65064 1018 ft 129 kts 198°
2026-04-20 12:42 36.14630 -86.65413 838 ft 130 kts 199°
2026-04-20 12:42 36.13774 -86.65764 665 ft 130 kts 198°
2026-04-20 12:43 36.12926 -86.66103 572 ft 121 kts 199°
2026-04-20 12:43 36.12247 -86.66376 571 ft 81 kts 198°
2026-04-20 12:43 36.11874 -86.66528 580 ft 29 kts 198°
2026-04-20 12:43 36.11840 -86.66605 581 ft 10 kts 286°
2026-04-20 12:44 36.11897 -86.66652 580 ft 12 kts
2026-04-20 12:44 36.11984 -86.66624 578 ft 14 kts 20°
2026-04-20 12:44 36.12087 -86.66585 576 ft 17 kts 17°
2026-04-20 12:44 36.12201 -86.66539 573 ft 15 kts 18°
2026-04-20 12:45 36.12281 -86.66560 569 ft 13 kts 302°
2026-04-20 12:45 36.12315 -86.66674 572 ft 14 kts 289°
2026-04-20 12:45 36.12343 -86.66782 573 ft 14 kts 290°
2026-04-20 12:45 36.12394 -86.66887 571 ft 15 kts 311°
2026-04-20 12:46 36.12459 -86.66951 575 ft 11 kts 347°
2026-04-20 12:46 36.12533 -86.66924 577 ft 12 kts 20°
2026-04-20 12:46 36.12601 -86.66963 570 ft 12 kts 309°
2026-04-20 12:46 36.12653 -86.67039 569 ft 11 kts 313°
2026-04-20 12:47 36.12698 -86.67104 569 ft 9 kts 310°
2026-04-20 12:47 36.12729 -86.67159 571 ft 7 kts 286°
2026-04-20 12:47 36.12718 -86.67201 571 ft 4 kts 227°
2026-04-20 12:47 36.12703 -86.67217 569 ft 2 kts 224°
2026-04-20 12:48 36.12700 -86.67220 572 ft 0 kts 223°